Location: Bronschhofen
(47.4788°N, 9.0353°E)
Time: 19:16:10
(UTC+00:00)

SL-16 R/B - Pass Details

Date: 20 May 2022
Orbit: 842 x 846 km, 71.0° (Epoch: 01 July)

Event Time Altitude Azimuth Distance (km) Brightness Sun altitude
Exits shadow 00:37:54 11° 263° (W) 2,386 4.3 -20.4°
Maximum altitude 00:42:10 24° 315° (NW) 1,674 4.0 -20.1°
Drops below altitude 10° 00:46:45 10° 9° (N) 2,477 5.8 -19.8°
Sets 00:49:42 0° 23° (NNE) 3,416 7.0 -19.7°
